Regional Weather Roundup
Issued by NWS Upton, NY

Current Version | Previous Version | Graphics & Text | Print | Product List | Glossary Off
Versions: 1 2 3 4 5 6 7 8 9 10 11 12 13 14 15 16 17 18 19 20 21 22 23 24 25 26 27 28 29 30 31 32 33 34 35 36 37 38 39 40 41 42 43 44 45 46 47 48 49 50

000
ASUS41 KOKX 240005
RWROKX

REGIONAL WEATHER ROUNDUP
NATIONAL WEATHER SERVICE NEW YORK NY
800 PM EDT WED JUL 23 2014

NOTE: "FAIR" INDICATES FEW OR NO CLOUDS BELOW 12,000 FEET WITH NO
SIGNIFICANT WEATHER AND/OR OBSTRUCTIONS TO VISIBILITY.

NYZ071-072-176-178-NJZ106-104-240100-
NEW YORK CITY METRO AREA


CITY           SKY/WX    TMP DP  RH WIND       PRES   REMARKS
CENTRAL PARK   MOCLDY    86  70  58 SW8       29.81R HX  90
LAGUARDIA APRT MOCLDY    84  71  65 S9G16     29.78R
KENNEDY INTL   MOCLDY    78  70  76 S22       29.81R
NEWARK/LIBERTY CLOUDY    87  72  60 SW10      29.78R HX  93
BRNX BOT. GARD   N/A     81  72  74 S2        29.80R
TETERBORO      CLOUDY    90  69  50 SW13      29.77R HX  94
$$

NYZ177-179-078>081-240100-
LONG ISLAND NEW YORK

CITY           SKY/WX    TMP DP  RH WIND       PRES   REMARKS
FARMINGDALE    CLEAR     76  67  73 SW14G23   29.81S
ISLIP          MOCLDY    78  65  63 SW12      29.80S
SHIRLEY        CLEAR     75  67  76 SW9       29.82S
WESTHAMPTON    CLEAR     74  66  76 SW7       29.84S
MONTAUK POINT    N/A     73  68  84 S8        29.84S
$$

NYZ052-065-067-240100-
HUDSON VALLEY

CITY           SKY/WX    TMP DP  RH WIND       PRES   REMARKS
WHITE PLAINS   PTCLDY    78  71  79 S6        29.80R
NEWBURGH       NOT AVBL
MONTGOMERY     CLOUDY    83  69  62 NW22G28   29.81R
POUGHKEEPSIE   CLOUDY    86  72  62 SW6       29.76R HX  92
ALBANY         CLOUDY    74  70  87 CALM      29.80R
$$

NJZ001-105-106-008-010-013-015-019>022-104-240100-
NEW JERSEY

CITY           SKY/WX    TMP DP  RH WIND       PRES   REMARKS
NEWARK/LIBERTY CLOUDY    87  72  60 SW10      29.78R HX  93
TETERBORO      CLOUDY    90  69  50 SW13      29.77R HX  94
CALDWELL       CLOUDY    86  70  58 SW5       29.79R HX  90
MORRISTOWN     LGT RAIN  86  72  62 SW7       29.80R FOG     HX  92
SOMERVILLE     CLOUDY    84  69  60 CALM      29.78R THUNDER
LINDEN         FAIR      88  72  58 SW3       29.80S HX  94
SUSSEX         CLOUDY    82  70  66 CALM      29.82R
ANDOVER          N/A     78  72  81 SW3       29.82R
TRENTON        CLOUDY    85  70  60 SW8       29.80S
MILLVILLE      PTCLDY    80  73  79 S5        29.84R
ATLANTIC CITY  PTCLDY    78  71  79 S12       29.84R
WRIGHTSTOWN    MOCLDY    81  73  76 S7        29.80R
TOMS RIVER     PTCLDY    79  70  73 S6        29.83R
BELMAR         MOCLDY    81  70  69 SW8       29.82R
$$

PAZ047>061-062-071-240100-
EASTERN PENNSYLVANIA

CITY           SKY/WX    TMP DP  RH WIND       PRES   REMARKS
PHILADELPHIA   CLOUDY    85  71  63 S8        29.82R THUNDER HX  90
ALLENTOWN      CLOUDY    74  70  87 SW5       29.84R
SCRANTON       CLOUDY    76  68  76 VRB3      29.88R
$$

CTZ002-004>006-009-010-012-RIZ004-006-007-MAZ004-011-015-240100-
SOUTHERN NEW ENGLAND
 IN CT

CITY           SKY/WX    TMP DP  RH WIND       PRES   REMARKS
BRADLEY INTL   CLOUDY    83  71  67 S10       29.76R
HARTFORD       MOCLDY    80  70  71 S13       29.77R
DANBURY        PTCLDY    79  70  74 S12       29.80R
WTRBRY/OXFORD  PTCLDY    77  70  78 S12       29.83S
BRIDGEPORT     PTCLDY    79  71  76 SW9       29.80R
MERIDEN        MOCLDY    79  70  74 S10       29.78F
NEW HAVEN      PTCLDY    79  71  76 S6        29.80S
CHESTER        FAIR      75  70  83 SW9       29.82F
GROTON         PTCLDY    72  68  87 S6        29.80F
WILLIMANTIC    MOCLDY    79  69  71 S9        29.79S

 IN RI

CITY           SKY/WX    TMP DP  RH WIND       PRES   REMARKS
PROVIDENCE     MOCLDY    76  67  73 SW14      29.81R
BLOCK ISLAND   CLEAR     72  66  83 SW12      29.84S
WESTERLY       PTCLDY    75  66  73 SW8       29.83S

 IN MA

CITY           SKY/WX    TMP DP  RH WIND       PRES   REMARKS
BOSTON         MOCLDY    79  68  69 S14       29.76R
WORCESTER      CLOUDY    78  70  76 SW12      29.82R
WESTFIELD      CLOUDY    82  66  58 N10       29.77R
PROVINCETOWN   CLEAR     72  64  78 SW17G24   29.80F
NANTUCKET      CLEAR     69  67  93 S10       29.85S
$$

ANZ330-335-338-340-345-350-353-355-240100-
COASTAL MARINE OBSERVATIONS


STATION/POSITION TIME  SKY/WX   TEMP    WIND        PRES    VSBY  WAVE
                                AIR SEA DIR/SP/G                  HT/PER
                 (UTC)          (F)     (DEG/KT/KT) (MB)    (MI)  (FT/S)
NY HARB ENTRANCE NOT AVBL
4S FIRE IS       NOT AVBL
23SW MTP         0000            73 71              1009.2          3/ 4
HUDSON CANYON    0000            75 75  210/ 12/ 14 1010.6          2/ 3
EXECUTION ROCKS  0000            77 71  200/ 10/ 12   N/A
WESTERN LI SOUND 0000            78     200/ 10/ 12   N/A           1/ 3
CENTRAL LI SOUND 2300            76 74  220/ 14/ 19   N/A           2/ 4
EASTERN LI SOUND 2300            72 67  240/  8/ 12   N/A
ROBBINS REEF     0000            86     210/ 12/ 15   N/A
$$


>>>>>>>>>>>>>>>>>>>>>>>>>>>> KEY <<<<<<<<<<<<<<<<<<<<<<<<<<<
>                                                          <
>     SKY/WX - SKY CONDITION/PRESENT WEATHER               <
>     TMP    - TEMPERATURE IN FAHRENHEIT                   <
>     DP     - DEWPOINT IN FAHRENHEIT                      <
>     RH     - RELATIVE HUMIDITY IN PERCENT                <
>     WIND   - DIRECTION AND SPEED IN MPH                  <
>     PRES   - MEAN SEA LEVEL PRESSURE IN INCHES OF HG     <
>     WCI    - WIND CHILL INDEX                            <
>     VSB    - VISIBILITY IN MILES                         <
>     HX     - HEAT INDEX                                  <
>     TC     - TEMPERATURE IN CELSIUS                      <
>     VRB    - VARIABLE WIND DIRECTION                     <
>                                                          <
>>>>>>>>>>>>>>>>>>>>>>>>>>>> KEY <<<<<<<<<<<<<<<<<<<<<<<<<<<





USA.gov is the U.S. government's official web portal to all federal, state and local government web resources and services.